Flag for Austria Weather past 2 weeks in Steyr, Upper Austria, Austria

Now
46 °F

Cool.


Feels Like: 43 °F
Forecast: 35 / 48 °F
Wind: 5 mph from West

Location: Kremsmuenster

Current Time: Mar 27, 2015 at 2:21:20 PM

Latest Report: Mar 27, 2015 at 1:00 PM


Visibility: N/A

Pressure: 30.05 "Hg

Humidity: 76%

Dew point: 38 °F

Location of SteyrLocation

Historic Weather in Steyr — Graph

°F

Steyr temperature yesterday

Maximum temperature yesterday: 50 °F (at 12:00 AM)
Minimum temperature yesterday: 44 °F (at 11:00 PM)
Average temperature yesterday: 48 °F

Past Weeks' High & Low Weather Summary

 TemperatureHumidityPressure
High60 °F (Mar 16, 2:00 PM)97% (Mar 24, 3:00 AM)30.38 "Hg (Mar 24, 3:00 AM)
Low31 °F (Mar 21, 6:00 AM)23% (Mar 19, 5:00 PM)29.58 "Hg (Mar 25, 4:00 PM)
Average44 °F70%30.11 "Hg
* Reported Mar 12 1:00 PM — Mar 27 1:00 PM, Steyr, Weather by CustomWeather, © 2015

Note: Actual official high and low records may vary slightly from our data, if they occured in-between our weather recording intervals... More about our weather records

Advertising

Steyr weather history for previous 24 hours

 ConditionsComfort  
Time TempWeatherWind HumidityBarometerVisibility
1:00 PM
Fri, Mar 27
46 °FCool.5 mph76%30.05 "HgN/A
12:00 PM45 °FQuite cool.6 mph79%30.05 "HgN/A
11:00 AM44 °FQuite cool.8 mph83%30.04 "HgN/A
10:00 AM43 °FFog.6 mph86%30.03 "Hg2 mi
9:00 AM41 °FFog.5 mph89%30.02 "HgN/A
8:00 AM40 °FFog.6 mph91%30.00 "HgN/A
7:00 AM40 °FRain. Low clouds.7 mph90%29.98 "Hg2 mi
6:00 AM41 °FFog.6 mph90%29.96 "HgN/A
5:00 AM41 °FFog.5 mph86%29.92 "HgN/A
3:00 AM42 °FFog.5 mph90%29.91 "HgN/A
2:00 AM42 °FFog.5 mph92%29.90 "HgN/A
1:00 AM42 °FQuite cool.6 mph88%29.90 "HgN/A
12:00 AM43 °FFog.5 mph91%29.88 "HgN/A
11:00 PM
Thu, Mar 26
44 °FFog.3 mph93%29.87 "HgN/A
9:00 PM45 °FFog.3 mph90%29.85 "HgN/A
8:00 PM46 °FSprinkles. Overcast.5 mph89%29.84 "HgN/A
7:00 PM47 °FFog.2 mph82%29.82 "Hg2 mi
6:00 PM47 °FCool.2 mph82%29.80 "HgN/A
5:00 PM48 °FCool.3 mph77%29.79 "HgN/A
4:00 PM48 °FFog.3 mph76%29.78 "Hg2 mi
3:00 PM49 °FCool.3 mph77%29.78 "HgN/A
2:00 PM49 °FCool.3 mph77%29.79 "HgN/A
Weather by CustomWeather, © 2015

See weather overviewHow to use our weather pages